This is the latest recevied weather packets stored in our database for station/object N1YZ. If no packets are shown the sender has not sent any weather packets the latest 10 day(s).
| Time | Temp. | Humidity | Pressure | Rain* | Wind** | Luminosity | Snow |
|---|---|---|---|---|---|---|---|
| 1777393588 | 18.89° C | 99% | 1039.8 hPa | 0 mm | - | 104 W/m² | - |
| 1777393284 | 18.89° C | 99% | 1039.8 hPa | 0 mm | - | 129 W/m² | - |
| 1777392981 | 18.89° C | 99% | 1039.8 hPa | 0 mm | - | 194 W/m² | - |
| 1777392676 | 18.89° C | 99% | 1040.1 hPa | 0 mm | - | 95 W/m² | - |
| 1777392373 | 18.89° C | 99% | 1039.9 hPa | 3.05 mm | - | 195 W/m² | - |
| 1777392069 | 18.89° C | 99% | 1039.7 hPa | 4.32 mm | - | 157 W/m² | - |
| 1777391763 | 18.89° C | 99% | 1039.1 hPa | 1.27 mm | - | 69 W/m² | - |
| 1777391460 | 18.89° C | 99% | 1040.3 hPa | 0 mm | - | 28 W/m² | - |
| 1777391156 | 18.89° C | 99% | 1040.7 hPa | 0 mm | - | 25 W/m² | - |
| 1777390852 | 18.89° C | 99% | 1040.4 hPa | 1.78 mm | - | 22 W/m² | - |
| 1777390549 | 18.89° C | 99% | 1040.5 hPa | 1.78 mm | - | 22 W/m² | - |
| 1777390246 | 18.89° C | 99% | 1040.4 hPa | 0 mm | - | 17 W/m² | - |
| 1777389942 | 18.89° C | 99% | 1040.6 hPa | 4.32 mm | - | 12 W/m² | - |
| 1777389639 | 18.89° C | 99% | 1040.2 hPa | 10.67 mm | - | 11 W/m² | - |
| 1777389335 | 18.89° C | 99% | 1040.5 hPa | 10.67 mm | - | 9 W/m² | - |
| 1777389033 | 18.89° C | 99% | 1041.2 hPa | 7.11 mm | - | 7 W/m² | - |
| 1777388730 | 18.89° C | 99% | 1041.3 hPa | 4.32 mm | - | 7 W/m² | - |
| 1777388427 | 18.89° C | 99% | 1041 hPa | 3.05 mm | - | 12 W/m² | - |
| 1777388126 | 18.89° C | 99% | 1040.5 hPa | 3.05 mm | - | 23 W/m² | - |
| 1777387822 | 18.89° C | 99% | 1040.5 hPa | 1.78 mm | - | 28 W/m² | - |
| 1777387520 | 19.44° C | 99% | 1040.1 hPa | 9.65 mm | - | 19 W/m² | - |
| 1777387215 | 19.44° C | 99% | 1039.9 hPa | 14.99 mm | - | 17 W/m² | - |
| 1777386910 | 19.44° C | 99% | 1040 hPa | 23.88 mm | - | 8 W/m² | - |
| 1777386608 | 19.44° C | 99% | 1040.6 hPa | 22.86 mm | - | 5 W/m² | - |
| 1777386304 | 19.44° C | 99% | 1040.9 hPa | 3.05 mm | - | 5 W/m² | - |
* Rain latest hour (hover to see other rain measurements)
** Current wind speed in m/s (hover to see current wind gust speed)